www.pogodaiklimat.ru

Погода и климат >> Архив погоды >> Австралия >> Западная Австралия >> Ньюман


ПОГОДА в Ньюмане

  • Прогноз погоды в Ньюмане
  • Монитор погоды в Ньюмане

АРХИВ ПОГОДЫ в Ньюмане

Время (UTC), дата Ветер
(напр.,м/с)
 
Видим.   Явления Облачность Т
(С)
Тd
(С)
f
(%)
Тe
(С)
Тes
(С)
Комфортность P
(гПа)
Po
(гПа)
Тmin
(С)
Tmax
(С)
R
(мм)
R24
(мм)
S
(см)
07 12.08 З 2 н/о н/о +27.0 -2.7 14 +24 +24 комфорт 1018.0 957.6
09 12.08 С 2 н/о н/о +26.5 -2.2 15 +24 +24 комфорт 1018.2 957.8
10 12.08 С 1 н/о н/о +23.3 -3.1 17 +22 +22 комфорт 1018.8 958.3
12 12.08 В 3 н/о н/о +20.0 -3.6 20 +20 +20 1019.9 959.4
13 12.08 ЮВ 3 н/о н/о +17.5 -3.8 23 +18 +18 1020.1 959.6 +27.7
15 12.08 штиль 0 н/о н/о +13.4 -5.2 27 +13 +13 1019.8 959.3
16 12.08 СВ 2 н/о н/о +12.4 -5.1 29 +12 +12 1019.8 959.3
18 12.08 СЗ 2 н/о н/о +10.7 -5.3 32 +10 +10 1019.4 958.9
19 12.08 ЮВ 1 н/о н/о +10.5 -5.1 33 +11 +11 1019.5 959.0
21 12.08 штиль 0 н/о н/о +8.1 -6.0 36 +8 +8 1019.7 959.2
22 12.08 С 2 н/о н/о +7.5 -6.2 37 +7 +7 1020.1 959.6
00 13.08 С 1 н/о н/о +17.5 -5.7 20 +19 +19 1020.6 960.0
01 13.08 СВ 6 н/о н/о +21.2 -6.4 15 +20 +20 1020.9 960.3 +7.1
03 13.08 СВ 6 н/о н/о +25.1 -5.2 13 +23 +23 комфорт 1019.7 959.2
04 13.08 С 5 н/о н/о +26.4 -4.2 13 +24 +24 комфорт 1018.5 958.1
09 13.08 З 4 н/о н/о +27.6 -2.3 14 +25 +25 комфорт 1016.7 956.4
10 13.08 З 2 н/о н/о +24.7 -2.8 16 +23 +23 комфорт 1017.2 956.8
12 13.08 С 2 н/о н/о +20.5 -1.9 22 +21 +21 комфорт 1017.7 957.3
13 13.08 штиль 0 н/о н/о +16.6 -4.0 24 +17 +17 1017.9 957.5 +28.9
15 13.08 С 2 н/о н/о +17.6 -2.1 26 +18 +18 1017.7 957.3
16 13.08 С 1 н/о 10/0
[]
+17.1 -3.1 25 +18 +18 1017.4 957.0
18 13.08 С 3 н/о н/о +19.0 -1.4 25 +19 +19 1016.7 956.4
19 13.08 С 2 н/о 8/0
[]
+19.5 -2.8 22 +20 +20 1016.3 956.0
21 13.08 СВ 4 н/о н/о +17.1 -2.5 26 +17 +17 1016.4 956.1
22 13.08 СВ 5 н/о 10/0
[]
+16.9 -2.2 27 +16 +16 1017.0 956.6
00 14.08 СЗ 3 н/о н/о +20.1 -2.9 21 +20 +20 1018.3 957.9
01 14.08 С 5 н/о н/о +22.1 -2.6 19 +21 +21 комфорт 1018.8 958.3 +15.5
03 14.08 С 6 н/о н/о +26.1 0.0 18 +24 +24 комфорт 1017.5 957.1
04 14.08 С 8 н/о 4/0
[]
+27.0 -0.9 16 +25 +27 комфорт 1016.2 955.9
06 14.08 СЗ 7 н/о н/о +26.5 +0.3 18 +25 +25 комфорт 1014.6 954.4
07 14.08 С 6 н/о 10/0
[]
+26.3 +1.6 20 +25 +26 комфорт 1014.3 954.1
09 14.08 ЮЗ 4 н/о н/о +24.3 +6.1 31 +24 +24 комфорт 1015.1 954.9
10 14.08 ЮЗ 4 н/о 10/0
[]
+23.4 +7.9 37 +24 +24 комфорт 1015.4 955.1
12 14.08 ЮЗ 3 н/о н/о +21.4 +11.7 54 +23 +23 комфорт 1017.2 956.8
13 14.08 ЮЗ 3 н/о 10/0 2000 м
[]
+21.0 +12.4 58 +24 +24 комфорт 1017.4 957.0 +28.7
15 14.08 С 3 н/о н/о +19.5 +13.7 69 +21 +21 комфорт 1017.5 957.1
16 14.08 штиль 0 н/о в посл. час дождь {туман} 10/10 600 м
[]
+18.4 +14.9 80 +19 +19 1017.5 957.1
18 14.08 штиль 0 н/о н/о +18.1 +15.2 83 +18 +18 1017.1 956.7
19 14.08 ЮЗ 2 н/о {туман} 10/10 1000 м
[]
+17.7 +14.2 80 +18 +18 1016.7 956.4
21 14.08 ЮЗ 3 н/о н/о +16.9 +12.6 76 +17 +17 1017.1 956.7
22 14.08 Ю 2 н/о в посл. час дождь {туман} 9/0
[]
+15.6 +13.8 89 +16 +16 1017.6 957.2
00 15.08 Ю 3 н/о н/о +16.2 +13.5 84 +16 +16 1019.2 958.7
01 15.08 Ю 4 н/о в посл. час дождь {туман} 1/1 300 м
[]
+16.7 +11.0 69 +16 +21 1019.5 959.0 +15.6
03 15.08 В 3 н/о н/о +19.5 +10.5 56 +21 +21 комфорт 1018.7 958.2
04 15.08 СВ 2 н/о 9/9 1000 м
[]
+20.4 +10.5 53 +23 +24 комфорт 1017.9 957.5
06 15.08 Ю 3 н/о н/о +20.5 +11.4 56 +23 +23 комфорт 1015.8 955.5
07 15.08 ЮВ 4 н/о туман местами 10/10 600 м
[]
+17.2 +15.0 87 +17 +17 1015.9 955.6
09 15.08 В 3 н/о н/о +16.8 +13.7 82 +17 +17 1016.4 956.1
10 15.08 В 3 н/о {туман} 10/0 2000 м
[]
+16.3 +13.6 84 +16 +16 1017.1 956.7
12 15.08 Ю 1 н/о н/о +14.5 +13.0 91 +15 +15 1018.8 958.3
13 15.08 Ю 3 н/о {туман} н/о +13.7 +12.8 94 +13 +13 1019.1 958.6 +21.5
15 15.08 ЮВ 2 н/о н/о +12.5 +11.4 93 +12 +12 1019.6 959.1
16 15.08 штиль 0 н/о 5/0
[]
+11.6 +11.0 96 +11 +11 1019.6 959.1
18 15.08 Ю 2 н/о н/о +10.6 +10.0 96 +9 +9 1018.9 958.4
19 15.08 штиль 0 н/о в посл. час дождь {туман} н/о +10.3 +9.7 96 +9 +9 1019.0 958.5
21 15.08 ЮЗ 2 н/о н/о +8.9 +8.5 97 +7 +7 1019.1 958.6
22 15.08 ЮЗ 2 н/о н/о +8.8 +8.2 96 +7 +7 1019.8 959.3
00 16.08 ЮВ 3 н/о н/о +11.2 +5.9 70 +10 +10 1021.0 960.4
01 16.08 ЮВ 5 н/о н/о +14.4 +5.7 56 +13 +13 1021.6 961.0 +8.4
03 16.08 В 4 н/о н/о +17.5 +5.1 44 +17 +17 1020.9 960.3
04 16.08 В 4 н/о н/о +18.4 +5.3 42 +19 +19 1019.8 959.3
06 16.08 В 3 н/о н/о +20.9 +0.2 25 +21 +21 комфорт 1018.5 958.1
07 16.08 В 3 н/о н/о +21.3 +0.5 25 +21 +21 комфорт 1018.1 957.7
09 16.08 В 3 н/о н/о +20.5 -0.2 25 +21 +21 комфорт 1018.0 957.6
10 16.08 В 3 н/о н/о +19.3 +0.4 28 +20 +20 1018.2 957.8
12 16.08 С 2 н/о н/о +15.4 +4.2 47 +15 +15 1019.3 958.8
13 16.08 С 1 н/о н/о +13.1 +4.5 56 +13 +13 1019.5 959.0 +22.1
15 16.08 штиль 0 н/о н/о +10.0 +3.3 63 +10 +10 1019.4 958.9
16 16.08 С 2 н/о н/о +8.6 +3.0 68 +7 +7 1019.2 958.7
18 16.08 ЮЗ 3 н/о н/о +7.1 +1.8 69 +5 +5 1018.4 958.0
19 16.08 ЮЗ 2 н/о н/о +6.9 +0.1 62 +6 +6 1018.3 957.9
21 16.08 ЮЗ 2 н/о н/о +5.2 -0.6 66 +3 +3 1018.5 958.1
22 16.08 ЮЗ 3 н/о н/о +5.0 -0.8 66 +2 +2 1019.4 958.9
00 17.08 ЮЗ 3 н/о н/о +11.6 -2.9 36 +10 +10 1021.0 960.4
01 17.08 Ю 5 н/о н/о +15.3 -1.3 32 +14 +14 1021.7 961.1 +4.9
03 17.08 ЮЗ 5 н/о н/о +20.0 -2.3 22 +20 +20 1021.2 960.6
04 17.08 Ю 4 н/о н/о +20.5 -2.5 21 +20 +20 1020.6 960.0
06 17.08 ЮЗ 5 н/о н/о +22.6 -0.8 21 +22 +22 комфорт 1019.2 958.7
07 17.08 Ю 4 н/о н/о +23.4 -1.5 19 +22 +22 комфорт 1019.0 958.5
09 17.08 Ю 4 н/о н/о +22.3 -1.7 20 +21 +21 комфорт 1019.6 959.1
10 17.08 Ю 4 н/о н/о +20.1 -1.7 23 +20 +20 1020.2 959.7
12 17.08 Ю 3 н/о н/о +16.6 -0.1 32 +16 +16 1021.7 961.1
13 17.08 Ю 4 н/о н/о +15.7 -0.5 33 +15 +15 1022.5 961.8 +23.9
15 17.08 ЮВ 5 н/о н/о +14.4 -2.1 32 +13 +13 1023.2 962.5
16 17.08 ЮВ 4 н/о н/о +13.5 -2.8 32 +12 +12 1023.5 962.8
18 17.08 ЮВ 4 н/о н/о +11.6 -3.7 34 +10 +10 1023.9 963.1
19 17.08 ЮВ 3 н/о н/о +10.6 -3.5 37 +9 +9 1023.9 963.1
21 17.08 ЮВ 5 н/о н/о +9.1 -4.1 39 +7 +7 1024.2 963.4
22 17.08 ЮВ 4 н/о н/о +8.5 -4.3 40 +6 +6 1024.8 964.0
00 18.08 ЮВ 8 н/о н/о +10.8 -4.0 35 +8 +8 1026.2 965.3
01 18.08 ЮВ 8 н/о н/о +12.6 -3.6 32 +10 +10 1026.9 966.0 +8.3
03 18.08 ЮВ 6 н/о н/о +15.7 -4.2 25 +15 +15 1026.2 965.3
04 18.08 ЮВ 7 н/о н/о +16.9 -4.3 23 +16 +16 1025.2 964.4
06 18.08 ЮВ 7 н/о н/о +19.0 -5.8 18 +18 +18 1023.3 962.6
07 18.08 ЮВ 6 н/о н/о +19.4 -6.2 17 +19 +19 1022.7 962.0
09 18.08 ЮВ 6 н/о н/о +19.0 -7.4 16 +18 +18 1023.3 962.6
10 18.08 В 4 н/о н/о +17.2 -7.3 18 +17 +17 1024.0 963.2
12 18.08 ЮВ 3 н/о н/о +13.9 -6.9 23 +14 +14 1025.5 964.6
13 18.08 ЮВ 3 н/о н/о +12.4 -7.0 25 +12 +12 1026.1 965.2 +20.2
15 18.08 Ю 3 н/о н/о +9.9 -7.3 29 +8 +8 1026.4 965.5
16 18.08 ЮВ 3 н/о н/о +9.5 -7.6 29 +8 +8 1026.4 965.5
18 18.08 ЮВ 3 н/о н/о +7.9 -6.2 36 +6 +6 1026.1 965.2
19 18.08 ЮВ 2 н/о н/о +6.5 -5.8 41 +5 +5 1026.1 965.2
21 18.08 Ю 2 н/о н/о +2.8 -6.6 50 +1 +1 1026.5 965.6
22 18.08 ЮВ 3 н/о н/о +6.4 -3.2 50 +4 +4 1027.6 966.6
00 19.08 В 7 н/о н/о +10.7 -2.3 40 +8 +8 1028.8 967.7
01 19.08 В 8 н/о н/о +12.1 -2.5 36 +9 +9 1028.6 967.6 +2.5
03 19.08 В 8 н/о н/о +15.5 -2.4 29 +14 +14 1028.0 967.0
06 19.08 В 7 н/о н/о +19.3 -4.2 20 +19 +19 1024.7 963.9
07 19.08 ЮВ 7 н/о н/о +20.1 -4.9 18 +19 +19 1024.4 963.6

 

Местоположение метеостанции Ньюман (Западная Австралия, Австралия): широта -23.41 долгота 119.80 высота над уровнем моря 524 м.

В архиве по умолчанию представлена погода в Ньюмане за последнюю неделю. Архивные данные за месяц целиком и за предыдущие месяцы, начиная с января 2011 года, Вы можете получить, выбрав интересующий диапазон дат из раскрывающегося списка и нажав кнопку "Ввод!".


*Определитесь, кто Вы:
робот инопланетянин человек

Внимание! Время в таблицах - всемирное. Для получения местного времени необходимо прибавить поправку, которая равна 8 ч.

Смотрите также архив погоды в соседних городах и на ближайших метеорологических станциях:

Погода в Параберду (Западная Австралия, Австралия) (211 км)
Погода в Марбл-баре (Западная Австралия, Австралия) (248 км)
Погода в Телфере (Западная Австралия, Австралия) (311 км)
Погода в Порт-Хедленде Apardoo (Западная Австралия, Австралия) (360 км)
Погода в Микатарре (Западная Австралия, Австралия) (378 км)
Погода в Роборн аэропорту (Западная Австралия, Австралия) (403 км)
Погода в Мандоре (Западная Австралия, Австралия) (423 км)
Погода в Каррате (Западная Австралия, Австралия) (432 км)
Погода в Марди (Западная Австралия, Австралия) (466 км)
Погода в Леинстере (Западная Австралия, Австралия) (502 км)

Пояснения к столбцам:

Ветер - указаны скорость ветра в м/с - средняя за 10 мин, порывы в срок и между сроками (в фигурных скобках) и направление, откуда дует ветер: С - северный, СВ - северо-восточный, В - восточный, ЮВ - юго-восточный, Ю - южный, ЮЗ - юго-западный, З - западный, СЗ - северо-западный.
Видимость - горизонтальная дальность видимости в метрах или километрах. При видимости от 1 до 10 км при отсутствии осадков обычно наблюдается дымка, при ухудшении видимости до 1 км и менее - туман. В сухую погоду видимость может ухудшаться дымом, пылью или мглою.
Явления - указаны атмосферные явления, наблюдавшиеся в срок или в последний час перед сроком; фигурными скобками обозначены явления, наблюдавшиеся между сроками (за 1-3 часа до срока); квадратными скобками обозначены град или гололедные отложения с указанием их диаметра в мм.
Облачность - указаны через наклонную черту общая и нижняя облачность в баллах и высота нижней границы облаков в метрах; квадратными скобками обозначены формы облаков: Ci - перистые, Cs - перисто-слоистые, Cc - перисто-кучевые, Ac - высококучевые, As - высокослоистые, Sc - слоисто-кучевые, Ns - слоисто-дождевые, Cu - кучевые, Cb - кучево-дождевые. Подробнее классификацию облаков см. в Атласе облаков (PDF).
T - Температура воздуха - температура, измеренная на высоте 2 м над землей.
Td - Температура точки росы - температура, при понижении до которой содержащийся в воздухе водяной пар достигнет насыщения.
f - Относительная влажность воздуха - влажноcть воздуха, измеренная на высоте 2 м над землей.
Te - Эффективная температура - температура, которую ощущает одетый по сезону человек в тени. Характеристика душности погоды. При расчете учитывается влияние влажности воздуха и скорости ветра на теплоощущения человека.
Tes - Эффективная температура на солнце - температура, которую ощущает человек, с поправкой на солнечный нагрев. Характеристика знойности погоды. Зависит от высоты солнца над горизонтом, облачности и скорости ветра. Ночью, в пасмурную погоду, а также при ветре 12 м/с и более поправка равна нулю.
P - Атмосферное давление - приведенное к уровню моря атмосферное давление.
Po - Атмосферное давление - измеренное на уровне метеостанции атмосферное давление.
Tmin - Минимальная температура - минимум температуры воздуха на высоте 2 м над землей.
Tmax - Максимальная температура - максимум температуры воздуха на высоте 2 м над землей.
R - Количество осадков - Количество выпавших осадков за период времени, мм. При наведении курсора мыши на число - период времени, за который выпало указанное количество осадков.
R24 - Количество осадков - Количество выпавших осадков за 24 часа, мм.
S - Снежный покров - Высота снежного покрова, см. При наведении курсора мыши на число - состояние снежного покрова и степень покрытия местности в баллах.